This demonstration page uses our WeatherBlox Daily Observations layout. Learn more.

36.17497, -115.13722

Hourly Observations for September 20, 2018

Temp ( °F °C ) Dew Point ( °F °C ) Humidity (%) Winds ( mph kmh ) Pressure ( in mb ) Visibility ( mi km ) Precip ( " mm )
12:53 am 00:53 Clear 74 23.3 20 -6.7 13 13 Calm 29.71 1006 10 16.09344 0 0
1:53 am 01:53 Clear 75 23.9 13 -10.6 9 9 NNW 8 13 29.74 1007 10 16.09344 0 0
2:53 am 02:53 Clear 73 22.8 17 -8.3 12 12 NNW 9 15 29.74 1007 10 16.09344 0 0
3:53 am 03:53 Clear 72 22.2 15 -9.4 11 11 NNW 8 13 29.77 1008 10 16.09344 0 0
4:53 am 04:53 Clear 72 22.2 23 -5 16 16 NNE 8 13 29.8 1009 10 16.09344 0 0
5:53 am 05:53 Clear 71 21.7 17 -8.3 13 13 N 7 11 29.83 1010 10 16.09344 0 0
6:53 am 06:53 Sunny 70 21.1 16 -8.9 12 12 NNW 8 13 29.85 1011 10 16.09344 0 0
7:53 am 07:53 Sunny 74 23.3 27 -2.8 17 17 N 7 11 29.88 1012 10 16.09344 0 0
8:53 am 08:53 Sunny 80 26.7 12 -11.1 7 7 NNE 7 11 29.88 1012 10 16.09344 0 0
9:53 am 09:53 Sunny 83 28.3 17 -8.3 8 8 NNW 5 7 29.91 1013 10 16.09344 0 0
10:53 am 10:53 Sunny 87 30.6 18 -7.8 8 8 NNE 3 6 29.91 1013 10 16.09344 0 0
11:53 am 11:53 Sunny 88 31.1 19 -7.2 8 8 E 5 7 29.88 1012 10 16.09344 0 0
12:53 pm 12:53 Sunny 88 31.1 23 -5 9 9 SSW 3 6 29.88 1012 10 16.09344 0 0
1:53 pm 13:53 Sunny 91 32.8 13 -10.6 5 5 Calm 29.85 1011 10 16.09344 0 0
2:53 pm 14:53 Sunny 92 33.3 13 -10.6 5 5 SE 6 9 29.83 1010 10 16.09344 0 0
3:53 pm 15:53 Sunny 93 33.9 16 -8.9 6 6 Calm 29.83 1010 10 16.09344 0 0
4:53 pm 16:53 Sunny 92 33.3 20 -6.7 7 7 SSW 3 6 29.83 1010 10 16.09344 0 0
5:53 pm 17:53 Sunny 93 33.9 20 -6.7 7 7 Calm 29.83 1010 10 16.09344 0 0
6:53 pm 18:53 Clear 91 32.8 20 -6.7 7 7 Calm 29.83 1010 10 16.09344 0 0
7:53 pm 19:53 Clear 87 30.6 25 -3.9 10 10 N 3 6 29.85 1011 10 16.09344 0 0
8:53 pm 20:53 Clear 84 28.9 28 -2.2 13 13 WNW 5 7 29.85 1011 10 16.09344 0 0
9:53 pm 21:53 Clear 79 26.1 29 -1.7 16 16 N 5 7 29.88 1012 10 16.09344 0 0
10:53 pm 22:53 Clear 78 25.6 29 -1.7 16 16 NNW 7 11 29.88 1012 10 16.09344 0 0
11:53 pm 23:53 Clear 75 23.9 25 -3.9 15 15 NW 7 11 29.88 1012 10 16.09344 0 0

Powered by AerisWeather